CW7566 Weather Reports


time (UTC)temp
F
wind
direction
speed
knots
gust
knots
rain 1hr
in
rain 24hr
in
rain mn
in
humidity
%
barometer
mb
20260505041704 55 164 0.0 0.0 0.00 0.00 0.00 64 1018.7
20260505035702 56 163 0.0 1.7 0.00 0.00 0.00 63 1018.8
20260505034708 56 163 0.0 0.0 0.00 0.00 0.00 63 1018.8
20260505033718 56 163 0.0 1.7 0.00 0.00 0.00 63 1019.0
20260505032647 56 164 0.0 0.0 0.00 0.00 0.00 63 1019.0
20260505031716 57 163 0.0 0.0 0.00 0.00 0.00 61 1019.1
20260505025649 57 164 0.0 0.0 0.00 0.00 0.00 60 1019.1
20260505024713 58 164 0.0 0.0 0.00 0.00 0.00 60 1019.0
20260505022657 58 165 0.0 0.0 0.00 0.00 0.00 57 1019.1
20260505021703 58 129 0.0 0.0 0.00 0.00 0.00 57 1019.1
20260505020649 58 129 0.0 3.5 0.00 0.00 0.00 56 1018.8
20260505015719 58 142 0.0 0.0 0.00 0.00 0.00 57 1018.8
20260505013720 59 101 0.0 1.7 0.00 0.00 0.00 56 1018.7
20260505012713 59 15 0.0 1.7 0.00 0.00 0.00 55 1018.5
20260505005704 61 15 0.0 0.0 0.00 0.00 0.00 52 1018.4
20260505004729 62 15 0.9 3.5 0.00 0.00 0.00 50 1018.3
20260505003644 62 287 0.0 0.0 0.00 0.00 0.00 49 1018.2
20260505002702 63 287 0.0 0.0 0.00 0.00 0.00 47 1018.0
20260505001657 64 287 0.0 0.9 0.00 0.00 0.00 46 1018.0
20260505000650 65 287 0.0 0.0 0.00 0.00 0.00 45 1018.0
20260504235647 65 287 0.0 0.0 0.00 0.00 0.00 44 1018.0
20260504234700 66 287 0.0 0.0 0.00 0.00 0.00 43 1017.8
20260504233710 66 287 0.0 1.7 0.00 0.00 0.00 40 1017.8
20260504231708 67 287 0.0 2.6 0.00 0.00 0.00 36 1017.7
20260504230700 67 242 0.0 1.7 0.00 0.00 0.00 39 1017.6
20260504225655 68 242 0.0 1.7 0.00 0.00 0.00 34 1017.6
20260504224710 68 243 0.0 0.0 0.00 0.00 0.00 35 1017.6
20260504221651 71 332 1.7 4.3 0.00 0.00 0.00 31 1017.7
20260504220645 72 276 0.0 3.5 0.00 0.00 0.00 33 1017.6
20260504215658 73 276 1.7 6.1 0.00 0.00 0.00 33 1017.6
20260504214709 74 271 1.7 4.3 0.00 0.00 0.00 31 1017.5
20260504213701 74 280 1.7 6.1 0.00 0.00 0.00 32 1017.5
20260504212644 75 284 1.7 4.3 0.00 0.00 0.00 31 1017.4
20260504211657 76 279 2.6 7.0 0.00 0.00 0.00 29 1017.4
20260504210653 77 294 1.7 6.1 0.00 0.00 0.00 30 1017.3
20260504204654 77 279 0.0 3.5 0.00 0.00 0.00 27 1017.3
20260504203704 76 277 1.7 3.5 0.00 0.00 0.00 29 1017.3
20260504202640 78 259 0.0 3.5 0.00 0.00 0.00 27 1017.4
20260504201656 78 266 0.0 2.6 0.00 0.00 0.00 28 1017.4
20260504195654 79 279 1.7 3.5 0.00 0.00 0.00 30 1017.6
20260504193707 77 323 0.0 2.6 0.00 0.00 0.00 32 1017.9
20260504192649 76 339 0.0 6.1 0.00 0.00 0.00 31 1017.9
20260504191703 76 202 0.9 3.5 0.00 0.00 0.00 32 1018.1
20260504190711 75 156 1.7 2.6 0.00 0.00 0.00 33 1018.2
20260504185656 74 175 1.7 3.5 0.00 0.00 0.00 35 1018.3
20260504184644 74 251 1.7 3.5 0.00 0.00 0.00 35 1018.2
20260504183714 73 223 1.7 3.5 0.00 0.00 0.00 36 1018.3
20260504182646 71 252 0.0 2.6 0.00 0.00 0.00 38 1018.3
20260504181719 70 163 1.7 2.6 0.00 0.00 0.00 38 1018.5
20260504175642 68 295 1.7 4.3 0.00 0.00 0.00 42 1018.6
20260504174656 68 231 0.9 3.5 0.00 0.00 0.00 39 1018.6
20260504173644 67 196 0.0 2.6 0.00 0.00 0.00 40 1018.8
20260504172648 66 286 1.7 4.3 0.00 0.00 0.00 41 1018.8
20260504171701 65 317 0.9 5.2 0.00 0.00 0.00 39 1019.0
20260504170654 64 170 0.9 3.5 0.00 0.00 0.00 38 1019.0
20260504150653 56 210 0.0 1.7 0.00 0.00 0.00 63 1020.5
20260504140715 49 47 0.0 0.0 0.00 0.00 0.00 72 1020.6
20260504130700 42 45 0.0 0.0 0.00 0.00 0.00 84 1020.3
20260504080708 40 37 0.0 0.0 0.00 0.00 0.00 79 1019.4
20260504050709 44 38 0.0 0.0 0.00 0.00 0.00 69 1020.1
20260504044715 44 16 0.0 0.0 0.00 0.00 0.00 68 1020.1
20260504042722 45 16 0.0 0.0 0.00 0.00 0.00 66 1019.8